COSMOS 494

导读

COSMOS 494是苏联(解体后归属独联体CIS)于1972年6月23日发射的宇宙系列卫星。该系列由苏联从1962年开启命名,涵盖军事、科学等多类卫星,用统一命名模糊任务属性,保密性较强。 这类卫星多数完成任务后已退役,部分成为空间碎片在轨道漂浮,该系列中曾有卫星因失控核动力装置坠毁引发核污染担忧,COSMOS系列见证了早期航天发展历程。

Basic Information
目录编号:
6059
目录名称:
COSMOS 494
国际标识:
1972-043A
轨道中心:
EARTH
卫星名称:
COSMOS 494
卫星全名:
--
卫星状态:
在轨 (已飞行19806 天)
发射日期:
1972-06-23 UTC
国别 :
俄罗斯(独联体) (CIS)
星等 :
--
This satellite is enrolled in the Space Conjunction Data Service (SCDS) and the current flight risk assessment level is: No High Risk
Orbit Information
数据来源 国际轨道数据 AOE轨道数据
星历时间 2026-09-13T20:16:00+0800
17小时前
查看轨道信息
2026-09-12T23:00:00+0800
1天前
查看轨道信息
半长轴 7148.05km 7148.05km
偏心率 0.0009711 0.0009657
轨道倾角 74.053° 74.053°
近地点辐角 28.643° 30.110°
升交点赤经 279.759° 281.385°
平近点角 331.526° 69.274°
近地点 762.971km 763.01km
远地点 776.855km 776.816km
周期 100.240分钟 100.240分钟
每日圈数 14.365523 14.365523
Detailed Information
使用方式:
暂无
2D Orbit Map
3D Orbit Map
Orbit Altitude Analysis Chart
Orbit Inclination Analysis Chart
Orbit Comprehensive Analysis Chart
View Comprehensive Chart
Conjunction Data List
Event ID Objects TCA Miss Dist (km) Collision Risk Probability Collision Risk Index (CRI) Action
CDM_260914-120000-605908-921329
2026-09-14T
12:00:41+0000
1.769 km
极远距离
3.996652E-6 低风险 0.47
CDM_260916-032300-605903-099623
2026-09-16T
03:23:33+0000
1.713 km
极远距离
3.68147E-6 低风险 0.46
CDM_260916-014300-605903-099623
2026-09-16T
01:43:16+0000
2.963 km
极远距离
1.162751E-6 低风险 0.36
Miss Distance Evolution Trend with All Objects Subscribe to Flight Safety Assessment
Collision Probability Evolution Trend with All Objects Subscribe to Flight Safety Assessment